Weather History for Fargo, ND

Change the Weather History Date:

Saturday, November 20, 2010

  Actual Average Record
Temperature  
Mean Temperature 16 °F 26 °F  
Max Temperature 22 °F 34 °F 63 °F (1890)
Min Temperature 9 °F 18 °F -16 °F (1921)
Degree Days  
Heating Degree Days 49 39  
Month to date heating degree days 552 663  
Since 1 July heating degree days 1283 1539  
Cooling Degree Days 0 0  
Month to date cooling degree days 0 0  
Year to date cooling degree days 611 551  
Moisture  
Dew Point 7 °F    
Average Humidity 71    
Maximum Humidity 80    
Minimum Humidity 61    
Precipitation  
Precipitation 0.01 in 0.04 in 1.43 in (1977)
Month to date precipitation 0.05 0.72  
Year to date precipitation 27.05 21.50  
Snow  
Snow 0.10 in 0.30 in 12.00 in (1977)
Month to date snowfall 0.1 4.4  
Since 1 July snowfall 1.1 5.1  
Since 1 September snowfall 1.1 5.1  
Snow Depth 0.00 in    
Sea Level Pressure  
Sea Level Pressure 30.36 in    
Wind  
Wind Speed 10 mph (NE)    
Max Wind Speed 15 mph    
Max Gust Speed 17 mph    
Visibility 8 miles    
Events Snow    
T = Trace of Precipitation, MM = Missing Value Source: NWS Daily Summary

Daily Weather History Graph

Daily Weather History Graph

Search for Another Location

Airport:

Trip Planner

Search our weather history database for the weather conditions in past years. The results will help you decide how hot, cold, wet, or windy it might be!

Date:

Astronomy

Nov. 20, 2010 Rise Set
Actual Time 7:37 AM CST 4:47 PM CST
Civil Twilight 7:03 AM CST 5:21 PM CST
Nautical Twilight 6:26 AM CST 5:58 PM CST
Astronomical Twilight 5:50 AM CST 6:34 PM CST
Moon 3:53 PM CST (11/20) 6:39 AM CST (11/20)
Length of Visible Light 10h 17m
Length of Day
9h 10m
Waxing Gibbous, 99% of the Moon is Illuminated
Nov 20
Waxing Gibbous
Nov 21
Full
Nov 28
Last Quarter
Dec 5
New
Dec 13
First Quarter

Hourly Weather History & Observations

Time (CST) Temp. Windchill Dew Point Humidity Pressure Visibility Wind Dir Wind Speed Gust Speed Precip Events Conditions
12:53 AM 10.0 °F -2.9 °F 1.0 °F 67% 30.42 in 10.0 mi NNW 9.2 mph - N/A   Clear
1:53 AM 9.0 °F -5.9 °F 1.0 °F 70% 30.42 in 10.0 mi NNW 11.5 mph - N/A   Clear
2:53 AM 9.0 °F -4.2 °F -0.0 °F 67% 30.43 in 10.0 mi NNW 9.2 mph - N/A   Partly Cloudy
3:53 AM 10.0 °F -2.9 °F 1.0 °F 67% 30.43 in 10.0 mi North 9.2 mph - N/A   Scattered Clouds
4:53 AM 10.0 °F -2.9 °F 1.0 °F 67% 30.44 in 10.0 mi North 9.2 mph - N/A   Overcast
5:53 AM 10.0 °F -0.9 °F 1.9 °F 70% 30.44 in 10.0 mi NNE 6.9 mph - N/A   Overcast
6:53 AM 10.9 °F -0.8 °F 3.0 °F 70% 30.45 in 10.0 mi NNE 8.1 mph - N/A   Mostly Cloudy
7:53 AM 12.0 °F -0.4 °F 3.9 °F 70% 30.46 in 10.0 mi NE 9.2 mph - N/A   Mostly Cloudy
8:53 AM 12.9 °F -1.6 °F 3.9 °F 67% 30.46 in 10.0 mi NE 12.7 mph - N/A   Mostly Cloudy
9:40 AM 12.2 °F -1.8 °F 3.2 °F 67% 30.40 in 10.0 mi ENE 11.5 mph - N/A   Mostly Cloudy
9:50 AM 14.0 °F 1.2 °F 3.2 °F 62% 30.40 in 10.0 mi ENE 10.4 mph - N/A   Mostly Cloudy
9:53 AM 14.0 °F 1.2 °F 3.9 °F 64% 30.46 in 10.0 mi ENE 10.4 mph - N/A   Scattered Clouds
10:27 AM 14.0 °F 2.0 °F 5.0 °F 67% 30.41 in 10.0 mi NE 9.2 mph - N/A   Mostly Cloudy
10:53 AM 15.1 °F 2.5 °F 5.0 °F 64% 30.47 in 10.0 mi ENE 10.4 mph - N/A   Overcast
11:26 AM 15.8 °F 2.7 °F 5.0 °F 62% 30.40 in 10.0 mi NE 11.5 mph - N/A   Mostly Cloudy
11:53 AM 16.0 °F 2.9 °F 6.1 °F 65% 30.44 in 10.0 mi ENE 11.5 mph - N/A   Scattered Clouds
12:28 PM 17.6 °F 5.7 °F 6.8 °F 63% 30.36 in 2.5 mi ENE 10.4 mph - 0.00 in Snow Light Snow
12:53 PM 16.0 °F 2.3 °F 8.1 °F 71% 30.42 in 1.8 mi NE 12.7 mph - 0.00 in Snow Light Snow
1:03 PM 15.8 °F 3.4 °F 8.6 °F 73% 30.35 in 1.5 mi NE 10.4 mph - 0.00 in Snow Light Snow
1:46 PM 15.8 °F 3.4 °F 10.4 °F 79% 30.32 in 1.0 mi NE 10.4 mph - 0.00 in Snow Light Snow
1:53 PM 16.0 °F 3.6 °F 10.0 °F 77% 30.39 in 1.0 mi NE 10.4 mph - 0.01 in Snow Light Snow
2:19 PM 17.6 °F 7.3 °F 10.4 °F 73% 30.32 in 2.0 mi NE 8.1 mph - 0.00 in Snow Light Snow
2:27 PM 17.6 °F 7.3 °F 10.4 °F 73% 30.32 in 3.0 mi NE 8.1 mph - 0.00 in Snow Light Snow
2:40 PM 17.6 °F 6.4 °F 10.4 °F 73% 30.31 in 5.0 mi NE 9.2 mph - 0.00 in Snow Light Snow
2:53 PM 17.1 °F 5.8 °F 10.9 °F 77% 30.38 in 10.0 mi NE 9.2 mph - 0.00 in   Mostly Cloudy
3:53 PM 18.0 °F 5.4 °F 10.9 °F 74% 30.35 in 10.0 mi NE 11.5 mph - N/A   Scattered Clouds
4:53 PM 17.1 °F 5.8 °F 12.0 °F 81% 30.30 in 10.0 mi NE 9.2 mph - N/A   Clear
5:53 PM 19.0 °F 9.0 °F 12.9 °F 77% 30.28 in 10.0 mi NE 8.1 mph - N/A   Overcast
6:53 PM 19.0 °F 10.0 °F 12.9 °F 77% 30.26 in 10.0 mi NE 6.9 mph - N/A   Overcast
7:53 PM 21.0 °F 12.4 °F 14.0 °F 74% 30.23 in 10.0 mi East 6.9 mph - N/A   Overcast
8:53 PM 21.0 °F 10.6 °F 10.9 °F 65% 30.20 in 10.0 mi East 9.2 mph - N/A   Overcast
9:53 PM 21.0 °F 9.3 °F 12.0 °F 68% 30.18 in 10.0 mi ENE 11.5 mph - N/A   Overcast
10:53 PM 21.9 °F 11.0 °F 12.9 °F 68% 30.16 in 10.0 mi East 10.4 mph - N/A   Overcast
11:53 PM 21.9 °F 12.5 °F 12.9 °F 68% 30.14 in 10.0 mi ESE 8.1 mph - N/A   Overcast